Weather History for Reno, NV

Change the Weather History Date:

Wednesday, July 31, 2013

  Actual Average Record
Temperature  
Mean Temperature 80 °F 76 °F  
Max Temperature 92 °F 93 °F 103 °F (2000)
Min Temperature 67 °F 58 °F 37 °F (1964)
Degree Days  
Heating Degree Days 0 0  
Month to date heating degree days 0 0  
Since 1 June heating degree days 16 61  
Since 1 July heating degree days 0 5  
Cooling Degree Days 15 11  
Month to date cooling degree days 476 314  
Year to date cooling degree days 739 487  
Since 1 June cooling degree days 703 450  
Growing Degree Days 28 (Base 50)    
Moisture  
Dew Point 36 °F    
Average Humidity 25    
Maximum Humidity 37    
Minimum Humidity 13    
Precipitation  
Precipitation 0.00 in 0.01 in 0.63 in (1971)
Month to date precipitation 0.49 0.18  
Year to date precipitation 1.96 4.46  
Snow  
Snow 0.00 in 0.00 in 0.00 in ()
Month to date snowfall 0.0 0.0  
Since 1 June snowfall 0.0 T  
Since 1 July snowfall 0.0 0.0  
Snow Depth 0.00 in    
Sea Level Pressure  
Sea Level Pressure 29.95 in    
Wind  
Wind Speed 9 mph (WNW)    
Max Wind Speed 25 mph    
Max Gust Speed 37 mph    
Visibility 10 miles    
Events      
T = Trace of Precipitation, MM = Missing Value Source: NWS Daily Summary

Daily Weather History Graph

Daily Weather History Graph

Search for Another Location

Airport:

Trip Planner

Search our weather history database for the weather conditions in past years. The results will help you decide how hot, cold, wet, or windy it might be!

Date:

Astronomy

Jul. 31, 2013 Rise Set
Actual Time 5:58 AM PDT 8:12 PM PDT
Civil Twilight 5:27 AM PDT 8:42 PM PDT
Nautical Twilight 4:50 AM PDT 9:19 PM PDT
Astronomical Twilight 4:10 AM PDT 9:59 PM PDT
Moon 12:56 AM PDT (7/31) 3:32 PM PDT (7/31)
Length of Visible Light 15h 14m
Length of Day
14h 14m
Waning Crescent, 31% of the Moon is Illuminated
Jul 31
Waning Crescent
Aug 6
New
Aug 14
First Quarter
Aug 20
Full
Aug 28
Last Quarter

Hourly Weather History & Observations

Time (PDT) Temp. Dew Point Humidity Pressure Visibility Wind Dir Wind Speed Gust Speed Precip Events Conditions
12:55 AM 73.0 °F 36.0 °F 26% 30.01 in 10.0 mi NNE 11.5 mph - N/A   Scattered Clouds
1:55 AM 72.0 °F 36.0 °F 27% 30.00 in 10.0 mi NNE 3.5 mph - N/A   Scattered Clouds
2:55 AM 71.1 °F 37.0 °F 29% 30.00 in 10.0 mi NNE 6.9 mph - N/A   Scattered Clouds
3:55 AM 70.0 °F 37.0 °F 30% 29.99 in 10.0 mi NNW 4.6 mph - N/A   Partly Cloudy
4:55 AM 66.9 °F 39.9 °F 37% 30.00 in 10.0 mi South 3.5 mph - N/A   Scattered Clouds
5:55 AM 66.9 °F 39.9 °F 37% 30.01 in 10.0 mi Calm Calm - N/A   Mostly Cloudy
6:55 AM 68.0 °F 41.0 °F 37% 30.02 in 10.0 mi WNW 4.6 mph - N/A   Mostly Cloudy
7:55 AM 71.1 °F 39.0 °F 31% 30.01 in 10.0 mi WNW 3.5 mph - N/A   Scattered Clouds
8:55 AM 73.0 °F 37.9 °F 28% 30.01 in 10.0 mi Calm Calm - N/A   Partly Cloudy
9:55 AM 78.1 °F 35.1 °F 21% 30.00 in 10.0 mi North 5.8 mph - N/A   Scattered Clouds
10:55 AM 82.9 °F 35.1 °F 18% 29.98 in 10.0 mi NW 4.6 mph - N/A   Scattered Clouds
11:55 AM 86.0 °F 36.0 °F 17% 29.95 in 10.0 mi Variable 4.6 mph - N/A   Partly Cloudy
12:55 PM 89.1 °F 34.0 °F 14% 29.92 in 10.0 mi WSW 9.2 mph 16.1 mph N/A   Partly Cloudy
1:55 PM 89.1 °F 34.0 °F 14% 29.91 in 10.0 mi SW 13.8 mph - N/A   Partly Cloudy
2:55 PM 90.0 °F 37.0 °F 15% 29.89 in 10.0 mi West 13.8 mph 23.0 mph N/A   Partly Cloudy
3:02 PM 89.6 °F 35.6 °F 15% 30.07 in 10.0 mi West 18.4 mph 28.8 mph N/A   Partly Cloudy
3:55 PM 90.0 °F 36.0 °F 15% 29.87 in 10.0 mi WSW 17.3 mph 25.3 mph N/A   Partly Cloudy
4:55 PM 89.1 °F 33.1 °F 14% 29.88 in 10.0 mi WNW 19.6 mph 28.8 mph N/A   Partly Cloudy
5:55 PM 87.1 °F 30.9 °F 13% 29.86 in 10.0 mi WNW 20.7 mph - N/A   Scattered Clouds
6:55 PM 84.9 °F 30.9 °F 14% 29.86 in 10.0 mi West 12.7 mph 20.7 mph N/A   Scattered Clouds
7:55 PM 80.1 °F 32.0 °F 17% 29.87 in 10.0 mi West 18.4 mph 25.3 mph N/A   Scattered Clouds
8:55 PM 75.9 °F 35.1 °F 23% 29.91 in 10.0 mi NW 15.0 mph - N/A   Partly Cloudy
9:55 PM 73.9 °F 37.0 °F 26% 29.92 in 10.0 mi WNW 15.0 mph 25.3 mph N/A   Partly Cloudy
10:55 PM 73.0 °F 37.0 °F 27% 29.91 in 10.0 mi NW 11.5 mph - N/A   Partly Cloudy
11:55 PM 70.0 °F 36.0 °F 29% 29.91 in 10.0 mi Variable 4.6 mph - N/A   Clear